Wind_Speed
28 29 30 29 28 27 26 26 25 25 26 27 27 27 28 30 28 25 26 27 28 29 29 28 30 33 34 34 32 34 36 36 38 39 40 43 45 45 45 45 46 46 47 46 46 45 45 45 46 47 47 47 47 47 48 48 49 48 48 48 49 49 50 51 52 53 54 54 54 55 55 56 56 57 57 58 59 60 61 61 62 63 63 64 65 65 65 65
28 29 29 28 27 26 26 25 25 25 26 27 27 27 28 30 31 29 28 26 25 27 29 30 33 37 40 40 36 35 36 35 35 35 36 38 41 43 43 44 44 45 46 47 48 48 48 48 49 50 50 50 50 50 50 51 52 52 52 52 52 52 52 53 54 55 56 57 57 58 58 59 60 60 61 62 62 63 64 64 65 66 67 67 68 68 69 69
29 29 28 27 26 25 25 24 25 25 25 27 28 28 28 30 33 34 34 32 30 30 30 30 33 37 40 39 35 35 35 34 35 36 35 34 35 38 39 40 40 41 43 45 46 47 48 49 50 50 50 51 51 52 52 53 54 55 55 55 55 55 55 56 57 58 59 59 60 61 62 63 64 64 64 65 65 66 67 67 68 69 70 71 71 72 73 73
29 29 27 26 25 24 24 24 24 25 26 26 28 28 29 30 32 36 38 39 38 38 35 32 31 32 33 32 30 31 32 33 35 38 40 39 39 40 41 42 43 44 44 45 46 47 48 49 50 50 50 51 51 52 53 54 55 56 57 58 58 59 59 59 60 61 61 62 63 64 65 66 67 67 68 68 69 70 70 71 72 72 73 74 75 75 76 77
29 27 25 24 24 23 23 23 24 25 25 26 28 28 29 30 32 35 38 41 42 42 42 40 37 36 37 38 35 33 35 37 38 40 43 43 44 46 46 48 48 48 48 48 49 49 50 51 52 53 53 53 53 54 55 57 58 59 61 61 62 62 62 63 63 64 64 65 66 67 68 69 69 70 70 71 72 73 74 74 75 76 77 78 78 79 80 81
28 25 24 23 22 21 21 22 23 24 25 26 27 28 29 30 32 35 38 40 42 43 43 43 44 45 46 46 44 42 42 44 44 45 46 47 48 50 50 51 52 53 54 55 55 54 55 55 56 57 57 58 58 59 60 61 62 63 64 66 66 67 67 67 68 68 68 69 69 70 70 71 72 72 72 73 74 75 76 77 78 79 80 81 82 83 84 85
26 24 23 21 21 20 21 22 23 23 24 25 26 28 29 31 32 35 39 40 41 43 43 44 45 47 49 49 50 50 49 48 49 50 51 53 54 55 55 56 57 57 59 59 59 58 57 57 57 58 59 59 60 61 62 63 64 65 67 68 69 69 70 70 71 71 71 71 71 71 72 72 73 73 74 75 76 77 78 79 80 81 82 83 84 85 86 87
23 22 21 20 20 20 21 21 22 23 24 25 25 27 29 31 32 35 39 41 41 43 43 44 45 47 48 50 51 52 51 51 52 54 55 57 58 59 59 58 58 57 57 57 56 55 54 54 54 55 55 56 56 57 58 59 60 62 64 64 65 65 66 67 68 68 69 69 70 70 70 71 71 72 73 75 76 76 77 78 79 80 81 82 83 84 85 86
21 20 20 19 19 20 20 21 22 23 23 24 25 26 28 30 32 34 39 41 42 42 41 42 44 44 46 47 48 49 50 50 51 53 54 54 54 55 55 54 54 54 54 53 53 52 52 52 52 53 54 55 56 57 58 58 59 60 62 63 64 65 66 67 68 69 69 70 71 72 72 72 73 74 74 76 77 77 78 79 80 81 82 83 84 85 86 87
20 19 19 19 19 19 20 20 21 22 22 23 23 25 26 28 31 34 38 42 45 43 40 40 42 43 44 45 45 46 47 48 48 49 50 50 49 50 50 51 51 51 51 51 51 52 52 52 53 54 56 58 59 60 62 63 64 65 66 68 69 71 72 73 74 75 76 77 78 79 79 80 81 81 82 82 83 83 84 85 87 88 90 91 92 92 92 93
18 18 18 18 19 19 19 19 20 21 21 22 22 23 24 26 28 31 35 40 45 46 44 43 43 43 45 46 46 46 47 48 48 49 50 51 50 51 51 52 53 54 55 55 56 58 58 59 60 61 63 64 65 67 68 69 70 72 73 74 75 76 78 79 80 81 82 83 84 85 85 86 87 88 89 90 90 91 92 94 95 96 97 98 98 98 99 99
17 17 18 18 18 18 19 19 19 19 20 20 20 21 22 23 25 27 31 35 40 45 48 49 48 49 49 50 51 51 52 53 53 54 54 55 56 56 57 58 59 61 62 63 64 65 66 67 68 69 71 72 73 74 75 76 77 78 79 80 81 82 82 84 85 86 87 87 88 89 90 90 92 93 93 94 95 96 97 98 99 99 99 100 100 100 101 102
17 17 18 18 18 18 18 17 17 17 17 18 19 20 21 22 24 25 27 30 34 39 44 48 50 52 53 54 56 56 58 59 60 60 61 62 63 64 65 65 66 67 68 69 71 72 73 74 75 76 77 78 79 80 81 82 83 83 84 85 85 86 86 87 88 88 89 89 89 90 90 90 91 92 93 93 93 94 95 95 95 95 95 95 96 97 98 99
17 17 18 18 18 17 16 15 15 16 16 18 19 20 21 22 23 25 26 28 30 33 37 41 44 47 50 52 55 56 58 60 61 62 63 65 66 67 68 69 70 71 72 74 75 76 77 77 78 79 79 80 81 81 81 82 83 83 83 83 83 83 83 83 83 84 83 83 84 84 84 84 85 86 86 86 87 87 88 88 88 89 89 90 91 92 93 94
18 18 18 18 17 15 15 14 15 16 17 18 19 20 21 22 23 24 25 27 28 30 33 35 37 40 43 45 48 50 52 54 56 57 59 61 62 63 65 66 67 68 70 71 72 73 74 75 75 76 76 76 77 77 77 77 77 77 77 77 77 77 78 78 78 78 78 78 78 79 78 79 80 80 80 81 81 81 82 82 82 83 84 85 85 86 88 89
19 18 18 17 15 14 14 14 15 16 17 18 19 19 20 21 22 24 25 26 27 29 30 32 34 35 37 39 41 44 46 48 49 52 54 55 57 58 60 61 62 63 64 65 66 68 68 69 70 70 71 71 71 71 72 72 73 73 74 74 74 74 74 74 75 75 75 74 74 74 73 74 74 75 75 75 75 75 76 76 77 77 78 79 80 81 82 83
19 18 16 15 14 14 14 14 16 17 18 19 20 20 21 22 23 24 25 25 26 28 29 30 31 33 34 36 38 40 42 43 45 47 49 51 52 54 55 56 57 59 60 61 62 63 64 65 65 66 67 68 69 69 69 70 70 70 70 70 70 69 69 69 69 68 68 68 67 67 67 68 68 69 69 70 70 71 72 72 73 74 75 76 77 78 79 80
18 17 15 14 13 13 14 15 17 18 19 20 21 21 22 23 23 24 24 25 25 26 27 29 30 32 34 36 37 39 41 42 44 46 48 49 50 52 53 54 56 57 58 59 60 61 62 63 64 65 65 65 65 65 65 64 64 63 63 62 62 61 61 61 61 61 61 61 61 62 62 63 64 65 66 67 68 69 70 71 72 73 74 75 76 77 78 79
16 15 13 13 13 13 15 16 18 19 20 21 22 22 23 23 23 23 23 24 25 26 28 29 31 33 35 37 38 40 42 43 45 46 48 49 51 52 53 54 55 56 57 58 59 59 59 59 59 59 58 58 57 56 56 55 55 55 55 55 55 55 55 56 56 57 57 58 59 59 60 61 63 64 65 66 67 69 70 71 72 73 74 76 77 78 79 80
15 13 13 13 13 14 16 18 19 20 21 21 22 22 22 22 22 22 23 25 26 28 30 32 33 35 37 39 40 42 43 45 46 48 49 50 52 53 54 55 55 55 55 54 53 53 51 51 51 50 50 50 50 50 50 50 50 51 51 51 52 52 53 54 55 55 56 57 58 59 60 62 63 64 66 67 68 69 71 72 73 74 75 76 77 79 80 81
13 13 13 13 14 15 17 19 20 20 21 22 21 21 21 21 22 23 25 26 28 30 32 34 36 37 39 41 42 44 45 46 47 48 49 50 51 52 52 51 50 49 47 46 46 45 45 45 45 45 45 45 45 46 46 47 48 49 50 50 51 52 52 54 55 56 57 58 59 60 61 62 64 65 66 67 69 70 71 72 73 75 76 77 78 79 80 81
13 13 13 14 15 17 18 19 20 21 21 21 20 20 21 22 23 25 27 29 31 33 35 37 38 40 41 42 44 45 45 46 47 48 49 49 48 46 45 44 43 42 42 41 41 41 41 41 41 41 42 42 43 44 45 46 47 47 49 49 50 52 53 54 55 57 57 58 60 60 61 63 65 66 67 68 70 71 72 74 75 76 77 78 80 81 82 83
13 13 13 14 16 17 18 19 20 20 20 20 20 20 22 23 25 27 29 31 34 35 37 39 41 42 42 43 44 44 45 46 46 46 45 43 41 40 39 39 38 38 38 38 38 38 38 39 39 40 40 41 42 43 44 44 46 47 48 49 51 52 54 55 56 57 58 59 61 61 62 65 67 67 69 70 72 73 73 75 76 76 78 79 80 81 81 82
13 13 14 16 17 17 18 19 19 19 19 20 20 22 23 25 27 30 32 34 36 38 40 41 42 43 43 43 44 44 45 45 43 41 39 37 37 36 36 36 35 35 35 35 35 36 37 38 39 39 40 41 41 42 43 44 46 47 49 50 52 53 55 56 57 58 60 61 63 63 64 68 69 68 68 70 71 72 71 73 74 73 74 75 75 75 75 76
13 14 15 16 17 18 18 18 18 19 19 20 22 24 25 27 30 32 35 37 39 40 41 42 42 43 43 44 44 45 44 41 39 37 35 35 34 34 33 33 33 33 34 34 35 36 37 38 38 39 39 40 41 42 44 46 48 50 51 52 54 55 57 58 59 60 62 64 64 63 63 66 69 66 64 66 68 68 67 68 69 68 67 68 68 68 68 68
14 14 15 16 17 17 17 18 18 19 20 22 24 26 28 30 32 35 37 39 40 41 42 42 43 43 44 45 45 43 40 37 36 35 34 33 33 32 32 32 33 33 34 35 36 36 36 37 37 38 39 41 42 45 47 49 50 52 53 54 56 57 58 59 60 61 61 63 63 61 59 60 66 65 59 60 63 64 63 62 63 63 62 63 63 63 62 62
14 15 15 16 17 17 17 17 19 20 22 24 26 28 30 33 35 38 39 41 42 42 43 43 43 44 44 44 42 38 36 35 34 33 33 32 31 31 31 32 33 34 34 35 35 36 36 37 37 39 40 43 45 47 49 51 52 54 55 56 56 57 57 57 58 58 58 60 59 58 57 56 62 63 56 55 58 59 59 58 59 60 59 59 60 59 59 59
14 14 15 16 16 16 17 18 20 22 24 26 28 30 33 35 38 40 41 42 42 43 43 43 43 43 43 41 37 34 34 33 32 32 31 30 30 31 31 32 33 33 34 34 35 35 36 37 38 40 43 45 47 48 50 51 52 53 53 53 53 53 54 53 54 54 54 56 55 54 53 52 56 59 53 50 53 54 56 56 56 57 57 57 57 57 58 58
13 14 15 15 15 16 17 19 22 24 26 28 30 33 36 38 40 41 42 42 42 42 42 43 43 42 40 36 33 33 32 32 31 30 30 30 30 30 31 32 33 33 34 34 34 35 36 38 40 42 44 46 48 49 50 50 50 49 49 48 48 48 48 48 48 48 48 50 49 48 47 45 49 52 48 47 49 50 51 51 51 51 51 52 52 53 53 53
13 14 14 14 15 16 19 21 24 26 28 30 33 35 38 39 40 42 42 42 42 42 42 42 42 39 35 33 32 32 31 30 30 29 29 30 30 31 31 32 32 33 33 34 34 35 37 39 41 43 45 47 47 47 46 46 44 44 43 42 42 42 42 42 42 42 42 43 43 42 42 41 43 46 45 44 46 47 47 48 48 48 47 48 49 50 50 50
13 13 14 14 15 18 20 23 25 27 29 32 35 37 39 40 41 42 42 41 41 42 42 42 40 36 33 32 32 31 30 30 29 29 29 29 30 31 31 32 32 32 33 34 35 36 38 40 42 44 44 44 43 42 41 40 39 39 38 37 37 37 38 38 38 39 40 41 41 39 40 41 41 42 43 43 44 45 46 47 47 48 48 48 48 49 50 50
12 13 14 14 16 19 22 24 26 29 32 35 37 38 40 41 42 41 41 41 41 41 41 40 36 33 32 32 31 31 30 29 29 29 29 29 30 31 31 32 32 32 33 34 35 37 39 40 41 41 40 39 38 37 37 36 35 35 34 34 34 35 36 37 38 40 41 43 43 40 38 38 40 40 39 40 41 43 44 45 46 47 48 48 48 48 48 49
12 13 14 15 18 21 23 25 28 31 34 36 38 39 41 42 42 41 41 41 41 41 40 37 33 31 31 32 31 30 30 29 29 29 29 30 30 31 31 31 31 32 33 34 35 37 38 38 38 37 36 35 35 35 35 35 34 34 34 34 34 34 34 35 36 37 39 42 45 44 41 37 36 36 34 34 37 38 41 43 44 46 48 49 49 49 50 51
12 13 14 17 20 22 25 28 31 34 36 37 39 41 41 41 41 41 41 41 42 41 38 34 31 31 31 31 31 30 29 29 29 29 29 29 30 31 31 31 31 31 33 34 35 36 36 35 34 34 33 34 34 34 35 35 35 35 35 35 34 33 33 33 32 32 34 39 44 47 47 43 37 34 31 32 35 36 38 42 44 47 48 50 52 52 53 54
12 13 16 19 21 24 27 30 33 35 37 39 40 41 41 41 41 41 42 42 41 39 35 32 31 31 31 31 30 30 29 29 29 29 29 29 30 30 30 30 31 31 32 33 34 34 33 33 33 33 33 34 34 34 34 34 34 34 34 34 33 32 31 32 31 30 32 36 41 47 52 51 45 38 36 37 39 40 41 44 47 49 50 51 53 55 55 56
12 15 18 20 23 26 29 32 34 36 38 40 41 41 41 41 41 41 42 41 40 37 33 31 31 31 31 30 30 29 29 29 29 29 29 30 30 30 30 30 31 31 32 32 32 32 32 32 33 33 34 34 34 34 33 32 32 33 33 32 32 32 32 33 32 32 32 34 38 44 51 54 50 46 45 46 47 48 48 49 51 53 54 55 56 58 58 58
14 16 19 22 25 28 31 33 35 38 39 40 41 41 41 41 41 41 42 41 38 34 31 30 31 31 30 30 29 29 29 29 29 29 29 29 30 30 30 30 31 31 32 32 32 32 32 32 32 33 34 34 34 34 33 32 31 31 31 30 31 32 33 34 34 33 33 34 35 40 47 54 51 50 52 53 53 55 56 57 58 59 59 60 61 62 61 60
15 18 21 24 27 30 32 34 37 39 40 41 41 40 40 41 42 42 42 39 35 32 30 30 30 30 30 30 29 29 29 29 29 29 30 30 30 30 30 31 31 31 32 32 32 32 32 32 31 32 33 34 35 35 35 34 32 31 31 31 31 32 33 35 36 35 34 33 34 37 43 54 54 53 55 57 58 59 60 62 62 62 63 64 64 65 65 63
16 19 22 26 29 31 33 36 38 39 40 40 40 40 41 42 43 42 40 37 33 30 30 30 30 30 30 29 29 29 29 30 30 30 30 30 30 30 30 31 31 31 32 32 32 32 33 34 33 32 32 33 35 36 36 37 35 34 34 33 33 34 33 35 38 38 37 35 34 34 38 52 57 56 58 60 60 60 61 62 63 64 65 67 67 68 67 66
18 21 24 28 30 32 34 37 38 39 40 40 40 41 42 42 42 41 39 35 32 30 30 30 30 30 29 29 29 29 29 30 30 30 30 30 30 31 31 31 31 31 32 32 33 33 33 35 35 34 33 34 35 37 38 39 38 37 37 36 36 36 35 35 38 41 41 39 37 35 35 49 56 55 58 60 59 60 61 62 64 65 67 69 70 70 70 69
20 23 26 29 31 33 36 37 38 39 40 40 41 41 42 42 42 41 38 34 31 30 30 30 30 30 30 30 29 29 30 30 31 31 31 31 31 32 32 32 32 32 33 33 33 33 34 35 36 36 35 36 37 38 39 40 40 39 39 39 39 40 39 37 38 42 44 43 41 39 37 46 54 55 58 60 59 61 63 63 64 66 68 70 71 72 72 72
22 25 27 29 32 35 37 38 39 39 40 40 40 41 42 42 42 41 38 34 31 30 30 30 30 30 30 30 30 30 30 30 31 32 32 32 33 33 33 33 33 33 33 34 34 34 34 36 38 38 37 37 38 40 41 42 43 42 42 41 42 43 44 42 39 41 44 45 46 43 41 46 55 57 59 60 60 62 64 64 65 66 69 71 72 73 74 74
24 26 28 30 33 36 37 38 39 39 40 40 40 41 42 42 42 42 39 35 32 31 31 31 31 31 31 31 31 31 31 31 31 32 33 33 34 34 34 34 34 34 35 35 36 36 36 36 38 40 40 40 41 42 44 45 46 45 45 44 44 46 48 47 45 43 45 48 51 48 44 48 58 59 60 61 62 64 65 66 66 67 69 72 73 74 75 76
25 27 29 32 35 36 37 38 38 39 39 40 40 41 42 42 43 42 41 38 34 32 32 32 32 31 31 31 31 32 32 32 32 32 33 34 35 35 36 36 36 35 36 36 37 38 38 38 38 41 41 41 43 44 46 49 50 49 47 46 46 48 51 52 51 48 47 49 55 55 49 51 62 63 62 63 64 65 67 68 69 69 71 73 74 75 77 79
27 28 30 33 36 36 37 38 38 39 39 40 40 41 42 42 43 43 42 40 37 34 33 33 33 32 32 32 32 32 33 33 33 34 34 35 35 36 37 37 37 37 37 37 38 40 42 41 41 42 43 42 41 43 46 49 52 52 50 48 48 49 53 56 56 54 51 49 55 60 55 54 63 67 65 66 67 67 69 70 72 72 73 74 75 76 78 81
28 29 32 35 36 36 37 37 38 39 39 40 40 41 42 43 43 44 43 42 40 37 35 34 34 34 33 33 33 34 34 34 35 35 36 36 36 36 37 38 38 38 39 39 39 40 43 44 44 46 48 47 45 45 46 49 53 55 54 51 49 50 53 58 60 60 57 53 54 61 61 57 60 65 65 66 68 68 69 71 72 74 75 76 76 77 79 82
28 30 33 35 36 36 37 37 38 39 39 40 40 41 42 43 44 45 44 44 42 40 38 36 35 35 35 35 35 35 35 35 36 36 37 38 38 38 38 38 39 40 40 40 41 41 43 45 46 47 50 51 49 49 50 51 55 57 57 55 53 52 54 58 62 64 62 59 56 60 64 63 62 63 64 66 68 68 70 72 73 75 77 77 77 78 81 83
29 31 34 36 36 36 37 38 38 39 40 40 40 41 42 43 44 45 46 45 44 42 40 38 37 36 36 36 36 36 36 37 37 38 38 39 39 40 40 40 40 41 41 41 42 42 42 45 46 47 52 54 52 52 53 55 58 60 60 58 55 55 57 60 63 66 66 63 61 60 63 66 67 65 65 68 70 69 70 72 74 77 78 79 79 81 83 85
30 33 35 36 36 36 37 38 38 39 40 40 40 41 42 43 44 46 47 47 46 45 43 41 39 37 36 36 36 37 37 37 38 39 40 40 41 41 42 42 42 43 43 43 43 44 43 45 46 46 50 55 55 54 56 58 61 63 63 62 58 57 60 62 64 67 67 66 65 64 63 66 69 69 68 69 71 72 72 74 76 79 80 80 81 83 85 87
32 34 36 36 36 36 37 38 38 39 40 40 40 41 42 43 45 46 47 47 47 47 46 45 43 41 39 38 37 38 38 38 38 39 40 41 42 43 43 44 44 45 45 44 45 45 44 44 46 46 47 53 55 55 57 60 63 65 65 63 61 60 62 64 65 67 69 67 66 67 67 66 68 70 71 72 73 73 74 75 78 80 81 81 82 84 86 88
33 35 36 36 36 37 38 38 38 39 40 40 41 42 42 44 45 46 47 48 48 48 47 47 46 44 43 41 40 40 40 39 39 40 40 41 42 43 44 45 45 46 46 46 46 47 46 45 46 46 45 50 54 54 56 60 64 66 67 63 61 61 63 65 66 68 70 69 68 69 69 69 69 70 71 72 74 75 75 77 79 81 81 82 83 85 87 89
34 35 36 35 36 37 38 38 38 39 40 40 41 42 43 44 45 47 48 48 48 49 48 48 47 46 45 44 43 42 41 41 41 41 42 42 42 43 44 45 46 46 47 47 46 47 47 46 47 47 45 48 52 52 53 58 62 67 68 63 60 61 63 65 67 69 71 70 69 70 71 70 71 71 71 72 75 76 78 80 83 82 81 83 85 87 89 90
Wind_Direction
245 244 244 245 247 246 245 244 245 247 249 250 248 245 244 242 239 240 245 250 255 253 244 242 249 252 252 251 252 255 257 258 257 256 257 255 254 255 257 258 258 259 260 261 263 264 265 266 266 266 265 265 265 266 267 267 266 266 265 265 266 267 267 268 269 269 269 270 270 269 269 269 268 268 267 267 266 266 266 267 267 267 268 268 268 268 269 268
242 242 242 243 244 246 246 245 246 247 249 251 251 249 244 242 239 236 236 241 247 252 250 244 245 250 252 254 256 256 259 263 263 262 263 261 258 256 258 260 261 262 263 263 264 265 265 266 266 265 265 265 265 265 265 265 266 266 265 265 265 265 265 266 267 267 267 267 267 267 267 267 267 266 266 266 266 266 266 266 266 266 267 267 267 267 267 267
240 240 240 240 241 243 245 246 248 249 250 251 252 251 247 243 240 237 235 234 234 237 245 249 253 257 256 257 260 255 255 260 261 264 265 267 265 260 260 261 262 265 266 266 266 267 267 267 267 267 267 267 266 266 265 264 264 265 265 265 265 265 265 265 266 266 267 267 267 267 267 267 267 266 266 266 266 266 266 267 267 267 267 267 267 267 266 266
238 238 238 238 239 241 243 246 249 250 251 252 252 252 250 246 241 240 239 238 237 237 239 244 251 258 256 255 258 257 258 261 262 268 271 272 271 266 263 263 265 267 268 269 270 270 270 271 271 272 272 271 271 270 270 269 268 268 267 267 267 266 266 266 266 266 267 267 268 268 268 268 268 268 268 268 268 268 268 268 267 267 268 267 267 267 267 267
237 238 238 237 239 240 243 246 249 250 251 251 252 252 250 248 243 240 241 242 243 243 244 245 245 248 250 252 255 259 267 269 269 271 274 276 275 274 272 272 273 272 270 271 272 271 271 272 272 272 272 271 271 271 272 272 272 272 272 271 271 270 269 269 268 268 267 267 268 268 268 268 268 268 268 269 269 269 269 269 268 268 268 268 268 268 268 268
236 237 237 238 239 242 246 249 251 251 252 252 252 253 251 248 243 238 238 242 245 246 247 248 248 249 254 257 258 260 264 265 265 265 267 269 271 274 275 275 276 276 275 275 275 274 273 272 271 271 271 270 270 270 270 270 270 270 271 271 271 271 271 271 271 270 269 269 269 269 269 269 269 268 268 269 269 268 268 268 268 268 268 268 268 268 268 268
235 236 237 239 241 245 249 251 253 254 254 254 253 253 252 249 245 239 236 239 244 247 248 249 250 252 255 258 260 263 264 261 260 260 261 263 265 268 270 272 272 273 274 275 276 276 275 273 272 272 271 270 270 270 270 270 270 270 269 270 271 271 271 271 271 271 270 270 270 270 270 270 269 269 269 269 269 269 269 269 269 268 268 268 268 268 267 267
235 237 238 241 244 247 250 252 254 256 255 255 254 253 252 251 248 243 237 237 241 246 249 251 253 255 256 259 261 263 264 262 261 260 262 263 265 266 268 271 272 272 273 274 275 275 275 274 273 273 272 272 272 271 271 271 271 270 270 270 272 272 272 273 273 273 272 272 272 271 271 270 270 270 269 269 269 269 270 270 270 270 270 269 269 268 268 267
236 239 242 245 248 250 251 253 254 256 256 254 253 251 251 251 249 246 241 238 241 244 246 250 254 255 257 259 260 261 262 262 263 263 265 267 268 269 270 272 273 274 274 274 275 275 276 277 277 277 277 277 277 277 276 276 275 275 274 275 276 276 277 277 277 277 277 277 277 277 276 275 274 273 273 272 272 273 273 273 273 273 273 273 272 271 270 269
238 241 245 249 251 253 254 255 256 257 258 256 255 253 252 251 249 248 244 240 241 243 244 247 249 251 254 256 258 259 261 262 263 264 265 267 269 270 270 272 272 273 273 273 274 275 276 277 277 278 279 279 280 281 281 280 280 280 280 280 280 280 280 280 281 281 281 281 281 281 280 280 279 278 278 277 277 277 277 277 277 277 277 276 275 275 274 273
238 243 247 250 252 254 255 257 259 259 261 261 260 259 257 255 252 250 248 244 243 243 244 246 247 249 253 255 256 257 259 260 261 262 263 264 267 268 269 270 270 271 271 272 273 274 274 275 275 276 277 277 278 279 279 279 279 280 280 280 280 280 280 280 281 281 281 281 281 280 280 280 279 279 279 278 278 278 278 278 278 278 277 277 276 276 275 275
239 243 247 250 252 254 257 259 261 262 264 265 265 265 263 261 258 255 253 251 249 247 247 248 249 251 253 255 257 257 258 260 261 262 263 264 265 267 268 269 270 271 272 272 273 274 275 275 276 276 277 277 277 277 278 278 278 278 278 278 278 278 279 279 279 279 279 279 279 279 278 278 278 278 277 277 277 277 277 277 277 277 276 276 275 275 274 274
238 242 245 247 250 253 258 261 263 266 269 270 270 270 269 268 266 263 261 259 256 254 254 253 254 256 257 258 260 260 261 263 264 264 265 266 267 268 269 270 270 271 272 273 274 275 276 276 277 278 278 278 278 279 279 279 279 279 279 279 279 279 279 279 279 279 279 279 279 278 278 278 278 277 277 277 277 277 276 276 276 276 275 275 274 274 273 273
235 238 241 245 249 253 258 263 267 270 272 274 275 275 276 275 274 272 270 268 266 264 262 261 261 261 262 263 264 265 266 267 268 269 269 270 271 271 272 272 273 273 274 275 275 276 277 277 278 279 279 280 280 280 280 280 280 280 280 281 280 280 280 280 280 280 280 280 280 280 279 279 278 278 278 277 277 277 276 276 276 275 275 274 274 273 273 272
233 235 239 245 250 254 259 265 269 273 276 279 280 281 281 281 280 279 278 276 274 272 271 269 268 268 268 268 268 269 270 271 271 272 272 273 274 274 275 275 276 276 276 277 277 278 278 279 280 280 280 281 281 281 281 282 282 282 282 282 282 282 282 282 282 282 281 281 281 281 280 280 279 279 278 278 278 277 277 276 276 275 275 274 274 273 273 273
232 234 239 244 250 255 262 268 275 279 283 286 286 286 286 285 284 283 282 280 279 278 277 276 275 274 273 272 272 272 273 273 273 274 274 275 275 276 277 277 278 278 279 279 279 280 280 281 281 281 282 282 282 282 283 283 283 283 283 283 283 283 283 283 283 283 283 282 282 282 281 281 280 280 280 279 279 279 278 278 277 277 276 276 275 275 275 274
232 236 239 244 251 258 266 275 283 288 290 292 292 291 291 290 289 288 287 285 284 283 282 282 281 280 279 278 277 277 277 277 277 277 278 278 279 279 280 280 280 281 281 281 281 282 282 282 282 283 283 283 283 283 283 283 283 283 283 283 283 283 283 283 283 283 283 283 282 282 282 282 281 281 281 281 281 280 280 280 279 279 278 278 278 277 277 277
233 237 240 246 252 260 272 282 288 292 294 295 296 296 296 295 294 292 291 290 290 289 288 287 286 285 283 283 282 282 281 281 282 282 282 282 282 282 282 282 282 282 282 282 282 282 283 283 283 283 283 283 282 282 282 282 282 282 283 283 283 283 284 284 284 284 283 283 283 283 283 283 283 282 282 282 282 282 281 281 280 280 280 280 279 279 278 278
233 237 242 247 254 265 278 285 290 293 295 297 298 299 298 296 295 294 293 293 292 291 290 289 287 286 286 285 286 285 285 285 285 285 285 285 285 284 284 283 283 283 283 283 283 283 283 283 283 283 283 283 283 284 284 284 285 285 285 286 286 286 286 286 286 286 286 286 286 285 285 285 284 284 284 283 283 283 282 281 281 281 280 280 279 279 278 278
232 237 243 250 261 272 281 286 291 294 296 298 299 298 296 295 295 295 295 294 293 292 291 290 290 289 290 290 290 289 289 289 288 288 287 287 287 286 286 286 286 285 285 285 285 285 285 285 285 286 286 287 287 288 288 289 289 289 290 290 290 290 290 289 289 289 289 288 288 287 287 286 286 285 285 284 283 283 282 282 281 281 280 280 279 278 278 277
231 239 248 258 268 277 283 288 292 296 298 298 297 296 296 296 297 297 296 295 295 294 294 294 294 294 294 294 293 292 291 290 290 290 289 289 289 288 288 288 288 288 288 288 288 288 288 288 288 288 289 289 290 291 291 292 292 293 293 293 293 292 292 292 291 291 290 290 289 288 288 287 286 285 285 285 284 283 283 282 282 281 280 280 279 278 278 277
234 245 255 264 273 279 285 291 294 297 297 297 296 297 298 298 299 298 297 298 298 298 299 298 298 297 296 295 294 294 293 293 292 292 292 291 291 290 290 290 290 290 290 290 290 290 290 290 290 290 291 292 293 294 294 295 295 295 295 295 295 294 294 293 293 292 291 290 289 289 288 287 286 286 285 285 284 284 283 283 282 281 281 280 280 279 279 279
241 250 259 267 274 281 287 292 295 296 296 297 299 300 300 300 300 299 300 301 301 302 302 301 300 299 298 297 297 296 296 296 295 294 294 293 292 291 291 291 291 291 291 291 291 292 292 293 294 295 295 296 296 296 296 296 296 296 296 296 296 295 294 293 293 292 291 290 289 289 288 287 286 285 285 285 284 284 284 283 283 283 283 283 282 282 282 282
244 252 261 269 276 283 289 293 295 297 298 300 302 302 302 301 301 302 303 304 305 305 304 303 302 301 301 301 300 300 300 299 297 296 295 294 293 292 292 292 292 292 292 293 295 296 297 298 298 298 297 297 297 297 297 297 298 297 297 297 297 296 295 294 294 293 291 290 289 289 288 287 286 286 287 287 287 287 287 286 286 286 286 286 286 286 286 285
246 255 264 271 279 287 292 296 297 299 301 303 303 303 302 303 304 305 306 307 307 306 305 305 304 304 304 304 304 303 302 301 299 298 297 296 296 296 295 295 296 297 298 299 300 300 300 299 299 299 299 299 299 300 300 301 300 300 300 299 298 297 296 295 294 293 292 291 290 290 291 290 290 290 290 291 291 290 290 290 290 290 289 289 288 288 288 287
251 260 269 277 286 292 296 299 301 303 305 305 304 304 304 306 307 308 309 309 308 308 307 307 307 307 307 307 306 305 303 302 301 300 300 300 300 300 301 301 302 303 303 303 302 301 300 300 300 301 302 303 303 304 304 304 303 302 301 300 299 298 296 296 295 294 294 293 294 295 295 294 293 292 294 294 294 293 293 292 292 291 290 290 290 290 290 289
256 265 276 285 292 296 299 302 304 306 306 305 305 306 308 309 310 310 310 310 310 310 310 310 309 309 309 308 306 305 303 303 303 303 303 303 303 304 305 305 305 304 303 303 303 303 303 303 304 305 305 306 306 306 305 304 303 302 301 300 299 299 298 298 298 298 298 297 298 298 298 297 295 295 297 297 295 294 294 293 293 293 294 294 295 294 294 293
261 272 284 291 296 300 303 305 306 307 306 306 308 309 311 311 311 311 312 312 312 311 311 310 310 309 309 307 306 304 304 305 304 304 304 304 304 305 305 305 305 305 305 305 306 306 306 307 307 308 308 307 307 306 305 304 304 303 303 302 302 302 302 302 301 301 300 299 300 300 300 300 298 298 301 300 296 296 297 298 299 300 300 300 300 299 298 298
269 282 290 295 300 304 306 307 307 307 307 309 311 312 312 312 312 313 313 313 312 312 311 311 310 310 308 306 305 305 306 305 304 304 304 305 306 306 307 307 307 307 307 307 308 308 309 309 309 309 308 308 308 307 306 306 306 306 306 306 306 306 305 305 305 304 303 303 304 305 305 305 302 303 307 307 304 304 305 305 306 306 306 305 305 304 303 302
278 288 294 301 304 306 307 308 308 308 310 312 312 312 312 313 314 314 314 313 312 312 312 311 311 310 308 306 306 306 306 305 304 305 305 306 308 308 308 308 308 308 308 309 310 310 310 310 310 310 309 309 309 309 309 310 311 311 311 311 311 310 310 310 310 310 309 309 311 314 314 313 311 313 315 315 314 314 314 314 314 313 313 312 311 310 309 308
285 293 300 304 306 306 307 308 309 311 312 313 313 313 314 314 315 315 314 313 313 313 313 312 312 310 308 308 308 307 306 306 306 306 307 308 309 309 310 309 309 310 310 311 311 311 311 311 311 311 311 312 313 313 314 314 315 315 315 316 317 317 317 318 320 320 320 320 321 324 323 321 321 322 324 324 323 322 322 321 320 319 318 317 316 314 313 312
292 299 303 306 307 307 308 309 311 313 313 313 314 315 315 316 316 315 315 314 314 314 314 313 312 310 309 310 309 308 308 307 307 308 308 309 310 310 311 311 311 311 311 312 312 312 312 312 313 313 314 315 316 317 317 318 319 321 322 324 325 326 328 329 331 332 330 329 328 328 328 327 327 329 331 331 329 328 326 325 324 323 323 322 321 320 319 318
298 303 306 308 308 309 311 312 313 314 315 315 316 317 317 317 317 316 316 316 316 316 315 313 312 311 311 310 309 309 308 307 308 308 309 309 310 311 311 312 312 312 312 312 313 313 313 314 314 315 316 318 320 322 324 325 327 330 331 332 333 335 336 337 338 338 337 334 331 329 329 329 330 333 335 335 333 332 331 330 330 330 329 329 328 328 327 326
302 306 308 309 311 313 314 315 315 316 317 318 318 319 319 318 318 318 319 318 318 317 315 314 312 312 312 310 310 309 308 308 308 308 309 310 311 312 312 312 313 313 313 313 313 313 314 314 315 318 321 324 327 329 331 333 335 337 337 337 338 339 340 340 341 342 343 340 334 331 329 328 333 338 340 341 339 337 337 337 337 336 336 335 334 333 333 332
304 307 310 312 314 316 316 317 318 319 320 320 320 320 320 320 321 321 320 319 319 317 316 314 313 313 312 311 310 309 308 308 308 309 310 311 312 312 312 313 313 313 313 313 314 314 316 317 320 325 329 331 332 334 336 337 338 338 339 339 338 338 340 341 343 345 349 347 339 335 330 327 334 341 342 345 343 341 341 342 341 340 340 339 338 338 337 336
305 308 312 315 317 317 318 319 320 321 322 322 322 322 322 323 323 322 321 320 320 318 315 314 314 313 312 311 310 308 307 307 308 309 310 311 312 311 312 312 312 312 313 314 315 317 320 324 328 331 333 333 333 334 336 337 338 337 338 340 337 336 339 340 343 347 353 354 345 339 331 326 333 342 343 347 347 344 345 344 344 343 342 342 341 340 340 338
306 311 315 317 318 319 320 322 323 323 323 323 324 324 324 324 324 324 323 322 320 317 315 315 315 314 312 311 310 308 308 308 308 309 311 311 311 311 311 311 312 313 314 315 317 320 324 327 331 332 332 332 331 332 334 335 337 336 337 339 337 336 337 339 343 348 353 357 352 343 331 323 331 342 343 347 348 346 345 345 345 344 343 343 343 342 341 339
311 315 317 318 320 322 323 325 325 324 325 325 326 326 326 327 326 326 325 322 320 317 316 316 315 314 313 312 311 309 309 308 309 310 311 311 311 310 311 311 312 313 314 316 319 322 325 327 330 331 330 330 329 330 331 331 334 335 336 339 337 336 337 337 340 345 351 357 355 351 333 320 329 341 342 346 348 345 344 343 342 342 341 342 342 342 341 339
315 317 319 321 323 324 326 326 325 325 326 327 327 328 329 330 328 327 326 323 320 318 317 317 316 315 313 312 311 310 309 308 308 310 310 310 310 309 310 310 311 313 315 317 320 323 325 325 328 329 328 328 327 327 329 329 332 334 335 337 337 336 338 338 337 340 348 353 354 356 337 319 327 339 339 344 346 341 341 340 338 338 338 340 341 341 340 338
316 319 322 324 325 327 327 327 326 327 327 328 330 331 331 330 330 329 328 324 321 319 319 318 317 316 314 313 312 310 309 308 308 309 310 310 309 308 308 309 310 313 315 318 320 323 324 324 325 326 326 326 325 325 327 327 330 332 332 334 335 335 337 338 337 336 342 347 348 355 340 319 325 334 336 341 342 337 337 337 336 336 336 337 339 339 339 337
318 323 325 326 327 328 327 327 327 328 329 331 332 332 331 332 333 333 330 326 322 320 320 320 319 317 315 314 312 310 309 307 308 309 310 310 309 308 308 309 310 312 314 316 319 321 322 321 322 323 324 324 324 324 324 324 326 329 330 332 332 333 334 337 337 334 337 340 342 348 342 323 322 329 334 338 338 334 335 335 334 333 333 335 336 337 337 335
323 326 327 327 329 329 327 327 328 330 332 333 332 332 333 335 336 336 333 328 323 321 321 321 320 318 316 314 312 310 309 308 308 309 309 310 309 308 308 308 309 311 312 314 316 318 320 320 320 320 321 322 322 322 322 322 324 326 328 330 330 329 330 332 335 334 334 335 335 341 342 327 321 327 334 336 333 332 333 333 332 332 332 333 335 335 335 333
326 327 328 328 329 328 328 329 330 332 333 332 332 333 335 337 338 339 337 331 325 323 323 322 321 319 317 315 313 311 310 308 308 308 309 309 308 308 307 307 308 309 310 312 314 316 317 318 318 318 319 321 321 321 321 321 322 324 326 328 329 327 327 328 331 333 334 333 330 335 341 329 320 327 334 333 330 330 331 331 331 331 331 332 333 334 333 332
328 328 328 329 329 329 329 330 331 333 333 332 333 334 335 338 340 342 341 336 330 324 323 323 322 321 318 316 314 312 310 309 308 308 308 308 308 307 306 306 306 307 308 310 312 313 315 317 317 316 317 319 320 321 321 319 319 321 323 326 328 327 325 324 327 330 333 333 327 329 337 331 321 326 333 330 328 330 329 329 329 330 331 332 333 333 331 331
328 328 329 329 329 329 330 330 331 332 333 333 333 334 336 339 341 343 343 341 335 328 324 324 323 322 320 318 316 313 311 309 308 308 307 307 307 306 305 304 305 305 306 308 310 311 312 315 316 315 315 316 317 317 318 317 317 318 320 324 326 326 323 322 323 326 330 333 326 324 331 330 322 325 331 328 327 329 328 328 328 329 330 331 332 331 330 330
328 329 328 328 329 329 330 331 332 332 333 333 333 335 337 339 342 343 344 343 341 334 328 324 323 323 322 320 318 315 313 310 309 308 307 306 306 305 304 303 303 304 304 306 307 308 310 312 314 314 314 315 317 317 316 316 315 315 318 321 324 325 323 321 321 322 326 330 326 322 325 326 322 324 328 326 325 327 327 326 326 327 329 330 331 330 329 329
328 328 328 328 329 329 330 331 332 333 333 334 334 335 337 339 341 343 343 344 343 340 334 328 324 323 323 322 319 317 315 312 310 308 306 306 305 304 304 303 302 302 302 303 305 306 307 309 312 313 312 313 316 317 317 316 315 314 315 319 323 324 322 320 319 320 322 326 326 323 323 323 323 325 327 325 325 327 326 325 325 326 328 329 330 329 328 329
328 327 327 329 329 329 330 331 332 333 334 334 335 336 338 339 341 342 343 343 343 342 339 334 328 323 322 322 321 319 317 314 312 310 308 307 306 305 305 304 303 302 302 302 303 304 305 306 309 311 310 311 314 315 316 315 314 312 313 317 321 323 320 319 319 318 320 323 324 324 323 322 322 326 327 325 325 327 326 325 324 325 327 329 329 328 328 328
327 327 328 328 328 329 331 331 332 333 334 335 335 336 338 339 340 341 342 342 342 342 341 339 334 328 323 321 321 320 319 317 315 312 310 309 307 306 306 305 304 304 303 303 302 303 304 304 306 309 308 308 311 314 314 314 312 311 312 315 320 321 319 318 318 317 318 321 322 322 322 322 322 325 326 325 325 326 326 325 323 324 327 329 328 327 328 328
326 327 328 328 329 330 331 331 332 334 334 335 336 337 338 339 340 341 342 342 342 341 341 340 338 334 329 324 321 320 319 318 317 315 312 311 309 308 307 306 306 305 304 304 304 303 303 303 303 306 306 306 308 311 312 312 311 310 310 314 318 320 318 317 318 317 317 319 321 321 321 322 323 324 325 325 325 326 326 324 323 324 327 328 327 327 327 328
325 327 328 328 329 329 330 331 332 334 334 335 336 337 338 339 340 341 341 341 341 341 340 339 338 336 333 328 324 321 320 319 319 317 315 313 311 310 308 307 307 306 305 305 305 304 304 304 303 304 304 303 305 308 310 309 309 308 309 313 317 318 317 317 317 316 316 318 320 320 320 322 322 323 324 324 324 325 325 323 322 324 326 327 326 326 327 327
325 327 328 328 328 329 330 331 333 334 335 335 336 337 338 339 340 341 341 341 341 341 340 339 337 336 334 331 327 323 321 320 319 319 317 315 314 312 311 309 308 307 306 306 306 305 305 305 304 304 305 304 304 307 308 307 307 306 307 312 317 316 315 316 316 315 315 317 320 320 320 320 321 322 323 324 324 324 324 322 321 323 326 327 326 326 326 326
Height
10685 10685 10686 10686 10687 10688 10689 10690 10690 10691 10691 10692 10694 10695 10696 10696 10696 10697 10697 10698 10699 10700 10701 10702 10703 10703 10703 10704 10704 10704 10704 10704 10704 10704 10705 10705 10705 10705 10705 10705 10705 10704 10704 10703 10703 10703 10703 10703 10703 10703 10703 10704 10704 10704 10703 10702 10700 10700 10700 10699 10699 10699 10698 10698 10697 10696 10694 10694 10694 10694 10694 10694 10693 10693 10692 10691 10690 10689 10688 10688 10687 10686 10685 10684 10683 10682 10683 10682
10683 10683 10684 10685 10686 10686 10687 10688 10688 10689 10690 10690 10691 10693 10694 10694 10695 10695 10696 10696 10698 10698 10698 10699 10700 10700 10700 10700 10701 10701 10701 10701 10700 10701 10701 10701 10701 10702 10702 10702 10701 10701 10700 10700 10699 10698 10698 10698 10698 10698 10698 10699 10699 10699 10698 10697 10695 10695 10694 10694 10694 10693 10693 10692 10691 10690 10689 10688 10688 10688 10687 10687 10687 10686 10686 10685 10684 10683 10682 10682 10681 10680 10679 10678 10677 10676 10676 10675
10680 10681 10682 10684 10684 10685 10685 10686 10686 10687 10688 10688 10689 10690 10692 10693 10693 10693 10693 10694 10695 10695 10695 10696 10696 10696 10696 10696 10696 10697 10697 10697 10697 10697 10697 10698 10698 10698 10698 10698 10697 10697 10696 10695 10695 10694 10694 10693 10693 10693 10693 10693 10693 10693 10693 10691 10690 10689 10688 10687 10687 10686 10687 10686 10684 10684 10683 10682 10682 10681 10681 10680 10679 10679 10679 10678 10677 10677 10676 10675 10674 10673 10673 10671 10670 10669 10668 10667
10678 10679 10681 10682 10683 10683 10684 10684 10685 10685 10686 10686 10687 10688 10689 10690 10691 10691 10691 10691 10692 10692 10692 10693 10694 10694 10693 10693 10693 10692 10693 10694 10693 10693 10693 10694 10694 10694 10694 10694 10693 10692 10692 10691 10690 10690 10690 10689 10688 10688 10688 10688 10687 10687 10686 10685 10684 10683 10681 10680 10680 10680 10679 10679 10678 10678 10677 10676 10676 10675 10674 10673 10672 10672 10672 10671 10671 10669 10668 10667 10666 10666 10665 10663 10662 10661 10660 10659
10676 10677 10679 10680 10681 10681 10682 10683 10683 10684 10684 10685 10685 10686 10687 10687 10688 10688 10689 10689 10689 10689 10689 10690 10691 10691 10690 10690 10690 10690 10690 10690 10690 10690 10689 10689 10689 10689 10689 10689 10688 10687 10687 10686 10686 10686 10685 10685 10683 10683 10682 10682 10681 10681 10680 10679 10678 10676 10675 10674 10673 10673 10672 10672 10671 10671 10670 10670 10669 10668 10667 10666 10666 10666 10665 10664 10663 10662 10661 10660 10659 10658 10657 10655 10654 10653 10652 10651
10674 10676 10677 10678 10679 10679 10680 10680 10681 10681 10682 10683 10683 10684 10684 10685 10685 10686 10686 10687 10687 10687 10687 10687 10688 10688 10687 10687 10687 10687 10688 10688 10687 10687 10687 10686 10685 10684 10684 10683 10683 10682 10681 10681 10681 10680 10680 10679 10678 10677 10676 10676 10675 10674 10674 10673 10672 10671 10669 10667 10667 10666 10665 10665 10664 10663 10663 10662 10661 10660 10660 10659 10659 10658 10658 10657 10655 10654 10653 10652 10651 10650 10649 10648 10646 10645 10643 10642
10673 10674 10675 10676 10677 10678 10678 10678 10679 10679 10680 10680 10681 10681 10681 10682 10682 10683 10684 10684 10684 10685 10685 10685 10685 10685 10685 10685 10684 10684 10684 10684 10683 10683 10683 10682 10681 10680 10680 10679 10678 10677 10676 10675 10675 10674 10674 10673 10672 10671 10670 10669 10669 10668 10667 10666 10665 10664 10663 10661 10660 10659 10659 10657 10656 10655 10655 10654 10654 10653 10652 10652 10651 10651 10650 10648 10646 10645 10644 10643 10642 10641 10640 10639 10637 10636 10634 10633
10671 10672 10674 10674 10675 10676 10676 10677 10677 10677 10678 10678 10679 10679 10679 10679 10680 10681 10681 10682 10682 10682 10683 10683 10683 10682 10682 10682 10681 10681 10680 10680 10679 10679 10678 10677 10677 10676 10675 10673 10673 10672 10671 10670 10669 10668 10668 10667 10666 10665 10664 10663 10662 10661 10660 10660 10659 10657 10656 10655 10654 10653 10651 10650 10648 10648 10647 10647 10646 10646 10645 10644 10643 10642 10641 10639 10637 10637 10636 10635 10634 10633 10631 10629 10628 10626 10624 10622
10670 10671 10672 10673 10673 10674 10674 10675 10675 10675 10676 10676 10677 10677 10676 10677 10678 10678 10679 10680 10679 10679 10680 10680 10680 10679 10679 10678 10677 10677 10676 10676 10675 10674 10673 10672 10671 10670 10669 10668 10667 10666 10666 10665 10664 10663 10661 10660 10659 10658 10657 10656 10654 10654 10653 10653 10651 10650 10649 10648 10647 10645 10644 10642 10641 10640 10639 10639 10638 10637 10636 10635 10634 10633 10632 10630 10628 10628 10627 10625 10624 10623 10621 10619 10617 10615 10613 10611
10668 10669 10670 10671 10671 10672 10672 10673 10673 10673 10673 10674 10674 10674 10674 10675 10675 10676 10676 10677 10677 10677 10677 10677 10676 10675 10675 10674 10673 10673 10672 10671 10671 10669 10668 10667 10666 10665 10664 10663 10662 10661 10660 10659 10658 10657 10655 10654 10652 10651 10650 10648 10647 10646 10645 10644 10643 10642 10641 10640 10639 10637 10635 10634 10633 10632 10630 10629 10628 10627 10626 10625 10624 10622 10621 10620 10618 10617 10616 10615 10613 10611 10609 10607 10605 10603 10601 10600
10667 10667 10668 10669 10670 10670 10670 10671 10671 10671 10671 10671 10672 10672 10672 10672 10672 10672 10673 10673 10674 10674 10674 10673 10673 10672 10671 10670 10670 10669 10667 10667 10666 10665 10664 10662 10662 10661 10659 10658 10657 10656 10655 10654 10652 10650 10649 10647 10646 10645 10644 10642 10641 10640 10638 10637 10636 10635 10633 10632 10631 10629 10627 10626 10624 10623 10622 10621 10619 10618 10617 10616 10613 10612 10611 10609 10608 10607 10605 10604 10602 10599 10597 10595 10593 10591 10590 10588
10665 10666 10666 10667 10668 10668 10668 10669 10669 10669 10669 10669 10669 10669 10669 10669 10669 10669 10669 10670 10670 10670 10670 10669 10669 10668 10667 10666 10665 10664 10663 10662 10661 10660 10658 10657 10656 10655 10654 10653 10651 10650 10649 10647 10645 10643 10642 10640 10639 10638 10637 10635 10634 10633 10631 10629 10628 10627 10625 10624 10623 10621 10620 10618 10616 10614 10613 10612 10610 10608 10608 10606 10603 10601 10600 10598 10597 10595 10594 10591 10589 10587 10585 10583 10581 10579 10577 10575
10664 10664 10665 10665 10666 10666 10667 10667 10668 10668 10668 10667 10667 10667 10667 10666 10666 10666 10666 10666 10666 10666 10666 10665 10665 10664 10663 10662 10661 10660 10658 10657 10656 10655 10653 10651 10650 10649 10647 10646 10645 10644 10642 10640 10638 10636 10635 10633 10632 10631 10629 10628 10626 10624 10622 10620 10619 10617 10616 10614 10613 10612 10610 10608 10606 10605 10603 10602 10600 10598 10597 10595 10592 10590 10588 10587 10585 10583 10581 10579 10577 10575 10572 10570 10568 10566 10564 10562
10662 10663 10663 10664 10664 10665 10665 10666 10666 10666 10666 10666 10665 10665 10665 10665 10664 10664 10664 10663 10663 10662 10662 10661 10660 10660 10659 10658 10656 10655 10654 10652 10650 10649 10647 10646 10644 10642 10641 10639 10638 10637 10635 10634 10632 10630 10628 10627 10625 10623 10621 10619 10617 10615 10614 10612 10610 10607 10606 10605 10603 10601 10600 10598 10596 10594 10593 10592 10590 10587 10587 10584 10581 10579 10577 10575 10573 10571 10569 10567 10565 10563 10560 10558 10556 10554 10551 10549
10661 10662 10662 10663 10663 10664 10664 10664 10664 10664 10664 10664 10664 10663 10663 10663 10662 10662 10661 10660 10660 10659 10658 10657 10656 10655 10654 10653 10652 10650 10648 10646 10645 10643 10641 10639 10638 10636 10634 10633 10631 10630 10628 10626 10624 10623 10621 10619 10617 10615 10613 10611 10609 10607 10605 10603 10601 10598 10597 10595 10593 10591 10590 10588 10586 10584 10582 10582 10579 10577 10576 10573 10570 10568 10566 10563 10561 10559 10557 10555 10553 10551 10548 10546 10544 10542 10540 10537
10660 10660 10661 10662 10662 10662 10663 10663 10663 10662 10662 10662 10662 10661 10661 10660 10660 10659 10658 10657 10656 10655 10654 10653 10652 10651 10650 10648 10647 10645 10643 10642 10640 10637 10635 10634 10632 10630 10628 10627 10625 10623 10622 10620 10618 10616 10614 10612 10610 10608 10606 10604 10601 10599 10597 10595 10592 10590 10588 10587 10584 10582 10580 10578 10576 10574 10572 10571 10569 10567 10565 10562 10559 10557 10554 10552 10550 10548 10546 10544 10541 10539 10537 10534 10532 10530 10528 10526
10659 10659 10660 10661 10661 10661 10661 10661 10661 10661 10660 10660 10660 10659 10659 10658 10657 10656 10655 10654 10653 10652 10651 10650 10648 10647 10645 10644 10642 10641 10639 10637 10635 10633 10631 10629 10627 10625 10623 10621 10619 10617 10616 10614 10612 10609 10607 10605 10603 10601 10599 10596 10594 10591 10590 10587 10585 10582 10580 10578 10576 10574 10572 10570 10568 10565 10563 10562 10560 10558 10556 10552 10550 10547 10545 10543 10540 10538 10535 10533 10531 10528 10526 10523 10521 10519 10517 10514
10658 10658 10659 10660 10660 10660 10660 10660 10660 10659 10659 10658 10658 10657 10656 10655 10654 10653 10652 10651 10650 10649 10648 10646 10645 10643 10641 10640 10638 10636 10634 10633 10630 10628 10626 10624 10622 10620 10618 10616 10613 10612 10610 10608 10606 10603 10601 10598 10596 10594 10591 10589 10586 10584 10582 10579 10577 10575 10573 10571 10569 10566 10564 10562 10560 10558 10555 10554 10552 10550 10548 10544 10541 10539 10536 10534 10531 10528 10526 10523 10520 10518 10515 10513 10511 10508 10506 10503
10657 10658 10658 10659 10659 10659 10659 10659 10659 10658 10657 10656 10656 10655 10654 10653 10652 10651 10649 10648 10647 10646 10645 10643 10641 10640 10638 10636 10634 10632 10630 10628 10625 10623 10621 10618 10616 10613 10611 10609 10607 10605 10603 10601 10599 10597 10594 10591 10588 10586 10583 10581 10578 10576 10574 10572 10569 10567 10566 10564 10561 10559 10557 10555 10553 10551 10548 10546 10544 10542 10539 10536 10533 10530 10528 10525 10522 10519 10516 10513 10511 10508 10506 10503 10500 10498 10494 10492
10656 10657 10658 10658 10658 10658 10658 10658 10657 10656 10655 10655 10654 10652 10651 10650 10649 10648 10647 10646 10645 10643 10642 10640 10638 10636 10634 10632 10630 10627 10625 10623 10620 10618 10615 10612 10609 10607 10604 10602 10600 10598 10596 10594 10591 10589 10587 10585 10582 10579 10577 10574 10571 10569 10567 10565 10563 10560 10559 10557 10555 10552 10550 10548 10546 10543 10541 10539 10536 10533 10531 10528 10524 10521 10519 10516 10513 10510 10507 10504 10501 10498 10496 10493 10490 10487 10484 10481
10656 10656 10657 10657 10657 10657 10656 10656 10655 10654 10653 10652 10651 10650 10649 10648 10647 10646 10644 10643 10641 10640 10638 10636 10634 10632 10630 10628 10625 10622 10620 10617 10615 10612 10609 10606 10603 10601 10598 10595 10593 10591 10589 10587 10584 10582 10580 10578 10576 10574 10571 10569 10566 10564 10561 10559 10557 10554 10552 10550 10548 10546 10543 10540 10538 10536 10533 10531 10528 10525 10523 10519 10516 10513 10510 10507 10503 10500 10498 10495 10491 10488 10485 10483 10480 10476 10473 10471
10655 10656 10656 10656 10656 10655 10655 10654 10653 10652 10651 10650 10649 10648 10647 10646 10644 10643 10641 10640 10638 10637 10635 10632 10630 10628 10625 10623 10620 10617 10615 10612 10609 10606 10603 10600 10597 10595 10592 10589 10587 10585 10583 10581 10578 10576 10574 10572 10570 10569 10566 10564 10562 10559 10557 10554 10552 10549 10547 10544 10542 10539 10537 10534 10531 10528 10526 10523 10520 10517 10515 10511 10507 10505 10501 10498 10494 10491 10489 10485 10481 10479 10475 10472 10469 10465 10463 10460
10654 10654 10655 10654 10654 10654 10653 10652 10651 10650 10649 10648 10647 10646 10645 10643 10642 10640 10639 10637 10635 10633 10631 10628 10626 10623 10620 10618 10614 10611 10609 10606 10603 10600 10597 10594 10591 10589 10587 10584 10582 10580 10578 10576 10574 10572 10569 10567 10565 10563 10561 10559 10557 10555 10552 10550 10547 10544 10542 10539 10536 10533 10530 10527 10524 10521 10518 10515 10512 10510 10508 10501 10498 10497 10493 10490 10486 10482 10480 10475 10471 10469 10465 10461 10458 10455 10452 10448
10653 10653 10653 10653 10653 10652 10652 10651 10650 10648 10647 10646 10645 10644 10642 10641 10639 10638 10636 10634 10631 10629 10627 10623 10620 10618 10615 10612 10609 10606 10603 10600 10597 10594 10591 10589 10586 10584 10582 10580 10577 10575 10573 10571 10569 10567 10565 10563 10561 10559 10556 10554 10552 10550 10548 10545 10542 10539 10536 10534 10530 10527 10524 10520 10517 10514 10510 10507 10503 10503 10501 10492 10487 10489 10486 10480 10476 10472 10470 10465 10460 10459 10455 10451 10448 10444 10442 10438
10651 10652 10652 10652 10651 10651 10650 10649 10648 10646 10645 10644 10643 10641 10640 10639 10637 10635 10632 10630 10628 10625 10622 10619 10616 10612 10609 10606 10602 10599 10596 10593 10590 10588 10586 10583 10581 10579 10577 10575 10573 10571 10569 10567 10565 10563 10561 10559 10556 10554 10552 10549 10547 10544 10542 10539 10536 10532 10529 10526 10523 10520 10516 10513 10509 10506 10502 10497 10494 10494 10493 10484 10475 10478 10479 10471 10465 10462 10460 10455 10450 10449 10446 10441 10437 10435 10432 10428
10650 10650 10650 10650 10650 10649 10648 10647 10645 10644 10643 10642 10641 10639 10638 10636 10634 10631 10629 10626 10623 10620 10617 10614 10610 10607 10604 10600 10596 10593 10591 10588 10585 10583 10581 10578 10576 10574 10572 10570 10568 10566 10564 10563 10560 10559 10557 10554 10552 10549 10547 10544 10541 10538 10535 10532 10529 10525 10523 10519 10516 10513 10509 10505 10501 10497 10493 10487 10485 10484 10484 10477 10464 10464 10472 10466 10456 10452 10450 10447 10442 10439 10437 10432 10428 10426 10423 10419
10649 10649 10649 10649 10648 10647 10646 10645 10644 10642 10641 10640 10638 10637 10635 10632 10630 10627 10625 10622 10619 10615 10612 10609 10605 10602 10598 10595 10591 10589 10586 10583 10581 10578 10576 10574 10572 10570 10568 10566 10564 10562 10560 10558 10556 10554 10552 10549 10547 10544 10542 10539 10536 10533 10530 10526 10523 10519 10516 10512 10509 10505 10500 10497 10492 10489 10484 10478 10477 10475 10474 10471 10457 10453 10463 10460 10450 10444 10440 10439 10434 10430 10428 10424 10420 10416 10413 10409
10648 10648 10648 10647 10646 10645 10644 10643 10642 10641 10639 10638 10636 10634 10631 10629 10626 10623 10621 10617 10614 10611 10607 10604 10601 10597 10594 10590 10587 10585 10582 10579 10577 10575 10572 10571 10569 10567 10565 10562 10560 10558 10556 10554 10552 10550 10547 10545 10542 10540 10537 10534 10531 10528 10524 10521 10517 10513 10509 10505 10501 10497 10492 10489 10485 10481 10477 10471 10470 10469 10466 10465 10451 10446 10453 10450 10442 10438 10433 10430 10427 10422 10420 10415 10412 10408 10404 10401
10647 10647 10646 10645 10644 10643 10642 10641 10640 10639 10637 10635 10633 10631 10628 10626 10623 10619 10616 10613 10610 10606 10603 10600 10597 10593 10590 10586 10584 10581 10578 10576 10573 10571 10569 10567 10565 10563 10561 10559 10556 10554 10552 10550 10548 10546 10543 10541 10538 10535 10532 10529 10526 10522 10518 10515 10511 10507 10503 10499 10495 10490 10486 10483 10479 10475 10470 10465 10464 10463 10460 10457 10447 10440 10444 10440 10434 10430 10426 10424 10420 10416 10412 10408 10405 10401 10397 10394
10646 10645 10644 10643 10642 10641 10640 10639 10638 10636 10635 10633 10630 10628 10625 10622 10619 10616 10612 10609 10606 10602 10599 10596 10592 10589 10586 10583 10580 10577 10575 10573 10570 10568 10566 10564 10562 10560 10558 10555 10553 10551 10549 10546 10544 10542 10539 10537 10534 10531 10528 10524 10521 10517 10513 10509 10506 10502 10498 10494 10490 10486 10481 10478 10474 10470 10465 10461 10459 10457 10452 10449 10443 10437 10437 10433 10428 10424 10419 10416 10413 10409 10406 10403 10399 10395 10391 10387
10644 10644 10643 10642 10641 10640 10639 10638 10636 10634 10632 10630 10627 10625 10621 10618 10615 10612 10608 10605 10602 10598 10594 10591 10587 10584 10582 10579 10576 10574 10571 10569 10567 10565 10563 10561 10559 10557 10554 10552 10550 10548 10545 10543 10541 10538 10536 10533 10530 10527 10523 10520 10516 10512 10508 10505 10501 10498 10494 10491 10487 10482 10478 10474 10470 10465 10460 10456 10453 10451 10446 10442 10438 10435 10431 10427 10423 10419 10414 10410 10406 10402 10399 10396 10392 10388 10384 10380
10643 10642 10641 10640 10639 10639 10637 10636 10634 10632 10630 10627 10624 10621 10618 10614 10611 10608 10604 10601 10597 10594 10590 10586 10583 10580 10577 10575 10572 10570 10568 10565 10563 10561 10559 10557 10556 10553 10551 10549 10546 10544 10542 10540 10537 10535 10532 10529 10526 10523 10519 10516 10512 10509 10505 10501 10498 10495 10491 10487 10483 10479 10474 10470 10466 10460 10454 10450 10447 10446 10443 10438 10435 10431 10428 10423 10419 10415 10410 10406 10401 10397 10393 10389 10385 10381 10377 10372
10641 10640 10640 10639 10638 10637 10636 10634 10632 10630 10627 10624 10621 10618 10614 10611 10607 10604 10600 10597 10593 10589 10585 10582 10579 10576 10574 10571 10569 10566 10564 10562 10560 10558 10556 10554 10552 10550 10548 10545 10543 10541 10539 10536 10534 10531 10528 10525 10522 10519 10516 10512 10509 10505 10501 10497 10494 10490 10486 10483 10479 10476 10472 10468 10464 10459 10452 10445 10440 10439 10438 10436 10433 10430 10426 10422 10417 10412 10407 10402 10398 10393 10388 10384 10379 10375 10370 10364
10639 10639 10638 10637 10636 10635 10634 10632 10629 10626 10624 10620 10617 10614 10610 10607 10603 10599 10596 10592 10588 10585 10581 10578 10575 10572 10570 10568 10565 10563 10561 10559 10557 10555 10553 10551 10549 10546 10544 10542 10540 10538 10535 10533 10531 10528 10525 10522 10519 10516 10512 10508 10505 10501 10497 10493 10489 10486 10482 10479 10475 10472 10470 10466 10463 10459 10453 10444 10435 10430 10428 10428 10430 10428 10425 10420 10415 10410 10405 10400 10395 10389 10384 10379 10374 10369 10364 10359
10638 10637 10637 10636 10634 10633 10631 10629 10626 10623 10620 10617 10613 10610 10606 10603 10599 10595 10592 10588 10584 10580 10577 10574 10572 10569 10567 10564 10562 10560 10558 10556 10554 10552 10550 10548 10546 10543 10541 10539 10537 10535 10532 10530 10527 10524 10522 10518 10515 10512 10508 10504 10500 10497 10493 10489 10486 10483 10479 10476 10472 10469 10467 10464 10460 10457 10453 10445 10434 10425 10418 10416 10420 10421 10419 10416 10411 10406 10402 10397 10391 10386 10381 10376 10370 10364 10359 10353
10637 10636 10635 10634 10632 10631 10628 10626 10623 10620 10617 10613 10610 10606 10603 10599 10595 10592 10588 10584 10580 10577 10573 10571 10568 10566 10564 10561 10559 10557 10555 10553 10551 10549 10547 10545 10543 10540 10538 10536 10534 10531 10529 10526 10523 10520 10517 10514 10510 10506 10503 10500 10496 10493 10490 10487 10484 10480 10477 10473 10470 10466 10463 10460 10458 10454 10450 10444 10435 10425 10413 10407 10411 10412 10409 10407 10403 10398 10394 10390 10385 10380 10375 10371 10365 10360 10354 10349
10635 10634 10633 10632 10630 10628 10625 10623 10620 10616 10613 10610 10606 10603 10599 10596 10592 10588 10584 10580 10576 10573 10570 10568 10565 10563 10560 10558 10556 10554 10551 10549 10548 10546 10544 10541 10539 10537 10535 10532 10530 10527 10525 10522 10519 10516 10513 10510 10507 10503 10499 10496 10492 10489 10487 10484 10481 10478 10474 10471 10467 10463 10459 10456 10454 10451 10448 10443 10436 10426 10412 10402 10405 10407 10401 10398 10395 10390 10386 10381 10378 10373 10368 10364 10359 10354 10349 10343
10634 10633 10632 10630 10628 10625 10623 10620 10617 10613 10610 10607 10603 10600 10596 10592 10588 10584 10580 10576 10573 10570 10567 10564 10562 10560 10557 10555 10553 10550 10548 10546 10544 10542 10540 10538 10536 10533 10531 10529 10526 10524 10521 10518 10515 10512 10509 10506 10504 10500 10496 10493 10489 10486 10483 10480 10478 10475 10471 10468 10464 10461 10456 10452 10449 10447 10445 10442 10436 10429 10412 10396 10398 10402 10396 10392 10388 10383 10379 10373 10369 10366 10361 10357 10353 10348 10343 10338
10632 10631 10630 10628 10625 10623 10620 10617 10614 10611 10607 10604 10600 10597 10593 10589 10585 10581 10577 10573 10569 10566 10564 10561 10559 10556 10554 10552 10550 10547 10545 10543 10541 10539 10537 10534 10532 10530 10528 10525 10523 10520 10517 10514 10511 10508 10505 10501 10499 10497 10493 10490 10486 10482 10479 10475 10473 10470 10467 10464 10460 10457 10454 10449 10444 10441 10440 10438 10434 10432 10416 10393 10391 10395 10390 10386 10383 10378 10374 10369 10363 10359 10354 10350 10346 10341 10336 10331
10631 10629 10627 10625 10623 10620 10617 10614 10611 10608 10605 10601 10597 10593 10590 10586 10582 10578 10573 10569 10566 10563 10561 10558 10556 10553 10551 10548 10546 10544 10542 10539 10537 10535 10533 10531 10529 10526 10524 10522 10519 10516 10513 10510 10507 10504 10501 10497 10495 10493 10490 10486 10482 10478 10475 10471 10468 10466 10463 10460 10456 10453 10450 10446 10441 10435 10433 10432 10429 10430 10419 10397 10389 10392 10387 10383 10381 10374 10370 10366 10359 10352 10347 10342 10338 10333 10329 10323
10629 10627 10625 10622 10620 10618 10615 10612 10609 10605 10601 10598 10594 10591 10587 10583 10579 10574 10570 10566 10563 10560 10558 10555 10552 10550 10547 10545 10543 10540 10538 10536 10534 10531 10529 10527 10525 10522 10520 10518 10515 10513 10510 10507 10504 10500 10497 10493 10490 10488 10485 10482 10478 10474 10471 10467 10464 10461 10458 10455 10451 10447 10445 10442 10439 10432 10428 10426 10423 10423 10418 10399 10389 10390 10386 10381 10377 10370 10365 10361 10354 10347 10341 10336 10331 10325 10321 10315
10627 10625 10623 10620 10618 10615 10612 10609 10605 10602 10598 10595 10592 10589 10585 10581 10576 10571 10567 10563 10560 10557 10555 10552 10549 10546 10544 10541 10539 10537 10535 10532 10530 10528 10525 10523 10521 10518 10516 10514 10511 10509 10506 10503 10500 10497 10494 10490 10486 10483 10481 10478 10474 10470 10466 10462 10459 10456 10453 10450 10446 10442 10438 10436 10434 10430 10424 10420 10416 10416 10413 10399 10386 10385 10382 10378 10372 10366 10360 10355 10349 10343 10336 10330 10325 10319 10313 10307
10624 10622 10620 10618 10615 10612 10609 10606 10602 10599 10596 10592 10589 10586 10582 10578 10573 10569 10565 10561 10558 10554 10552 10549 10546 10543 10541 10538 10535 10533 10531 10528 10526 10524 10521 10519 10517 10514 10512 10510 10507 10504 10501 10498 10496 10493 10491 10487 10483 10478 10475 10472 10469 10465 10461 10456 10453 10450 10447 10444 10441 10436 10432 10428 10426 10425 10421 10414 10408 10408 10408 10396 10382 10379 10378 10372 10367 10360 10354 10349 10344 10338 10331 10324 10319 10312 10306 10299
10622 10620 10617 10615 10612 10609 10606 10603 10599 10596 10593 10590 10587 10583 10579 10575 10571 10567 10562 10558 10555 10551 10549 10546 10543 10540 10538 10535 10532 10529 10527 10524 10522 10520 10517 10515 10513 10510 10507 10505 10503 10500 10497 10494 10491 10488 10485 10484 10480 10476 10471 10468 10464 10459 10455 10449 10446 10443 10441 10438 10435 10430 10425 10421 10418 10417 10416 10411 10401 10397 10400 10392 10375 10370 10371 10365 10360 10355 10347 10340 10335 10330 10325 10318 10312 10305 10297 10291
10619 10617 10615 10613 10610 10607 10604 10600 10597 10594 10591 10587 10584 10580 10577 10573 10568 10564 10560 10556 10552 10549 10546 10543 10540 10537 10534 10531 10529 10526 10523 10521 10518 10516 10513 10511 10508 10506 10503 10501 10498 10496 10493 10490 10487 10482 10479 10477 10475 10471 10468 10466 10463 10458 10453 10446 10440 10436 10434 10433 10430 10425 10419 10413 10410 10408 10409 10408 10398 10387 10391 10389 10372 10362 10361 10355 10349 10346 10339 10330 10324 10320 10316 10311 10305 10298 10290 10282
10617 10615 10613 10610 10607 10604 10601 10598 10595 10592 10588 10585 10582 10578 10574 10570 10565 10561 10557 10553 10550 10546 10543 10540 10536 10534 10531 10528 10525 10522 10520 10517 10514 10511 10509 10506 10504 10502 10499 10496 10493 10491 10488 10485 10483 10479 10474 10471 10469 10465 10460 10458 10458 10454 10450 10444 10436 10430 10428 10426 10425 10422 10415 10408 10402 10399 10399 10402 10396 10382 10378 10382 10373 10362 10358 10351 10343 10338 10332 10324 10317 10311 10308 10304 10298 10291 10283 10275
10615 10613 10610 10608 10605 10602 10599 10595 10592 10589 10586 10582 10579 10575 10571 10567 10563 10559 10555 10551 10547 10543 10539 10536 10533 10530 10527 10524 10522 10519 10516 10513 10510 10508 10505 10502 10499 10497 10495 10492 10489 10486 10484 10481 10478 10475 10471 10466 10464 10460 10453 10450 10450 10447 10443 10438 10431 10425 10421 10419 10418 10415 10410 10403 10395 10390 10389 10391 10391 10381 10370 10367 10365 10361 10354 10346 10339 10334 10326 10317 10310 10305 10301 10296 10291 10284 10276 10268
10613 10611 10608 10605 10602 10599 10596 10593 10590 10586 10583 10580 10576 10572 10568 10564 10560 10556 10552 10548 10544 10540 10536 10533 10530 10527 10524 10521 10518 10515 10512 10509 10506 10503 10500 10498 10495 10492 10489 10487 10484 10481 10479 10476 10473 10471 10468 10463 10459 10456 10448 10442 10442 10440 10436 10431 10425 10418 10414 10412 10413 10409 10403 10398 10390 10382 10380 10380 10379 10375 10367 10357 10352 10352 10348 10338 10330 10327 10320 10311 10302 10297 10293 10289 10282 10274 10267 10259
10611 10608 10606 10603 10600 10597 10593 10590 10587 10584 10580 10577 10573 10570 10566 10562 10558 10553 10549 10545 10541 10537 10533 10530 10527 10523 10520 10517 10514 10511 10509 10505 10502 10499 10495 10492 10490 10487 10484 10481 10479 10476 10473 10471 10468 10466 10464 10460 10456 10454 10446 10436 10434 10433 10430 10424 10417 10411 10405 10404 10405 10403 10396 10391 10385 10376 10371 10371 10368 10365 10362 10353 10343 10339 10338 10331 10323 10317 10311 10303 10294 10288 10285 10280 10273 10264 10257 10250
10608 10606 10603 10600 10597 10594 10591 10588 10584 10581 10578 10574 10571 10567 10563 10559 10555 10551 10547 10542 10538 10534 10530 10527 10523 10519 10516 10513 10510 10507 10504 10501 10498 10495 10491 10488 10485 10482 10479 10475 10473 10470 10467 10465 10463 10459 10459 10456 10453 10451 10446 10436 10430 10428 10424 10418 10410 10404 10400 10398 10397 10396 10389 10383 10378 10371 10364 10363 10360 10354 10351 10348 10339 10332 10327 10322 10315 10310 10303 10294 10287 10281 10277 10272 10265 10257 10249 10242
10606 10603 10600 10597 10595 10591 10588 10585 10582 10578 10575 10571 10568 10564 10560 10556 10552 10548 10544 10540 10536 10531 10527 10523 10519 10516 10512 10509 10506 10503 10499 10497 10494 10490 10487 10484 10480 10477 10474 10470 10467 10465 10461 10459 10457 10453 10452 10451 10448 10446 10445 10436 10428 10426 10422 10414 10405 10397 10393 10395 10394 10389 10383 10377 10371 10364 10358 10355 10353 10347 10341 10338 10333 10328 10322 10315 10307 10302 10295 10286 10279 10275 10271 10263 10256 10249 10241 10233
10603 10601 10598 10595 10592 10589 10586 10582 10579 10576 10572 10568 10565 10561 10557 10553 10549 10545 10541 10537 10533 10528 10524 10520 10516 10513 10509 10505 10502 10498 10495 10492 10489 10486 10482 10479 10476 10472 10469 10465 10462 10459 10456 10453 10451 10448 10445 10444 10442 10440 10440 10434 10426 10424 10420 10411 10402 10392 10387 10390 10390 10384 10378 10373 10365 10357 10350 10348 10346 10340 10334 10329 10324 10320 10315 10310 10301 10293 10286 10275 10267 10266 10265 10256 10246 10239 10233 10225